User: anonymous   Login
Location: Whispering Pines Observatory
(39.4020°N, 104.7430°W)
Time: 09:17:00
(UTC-06:00)
Language:

MOS 1 Rocket - Orbit

View from above orbital plane
View from above orbital plane
View from above satellite
View from above satellite

Ground track
Ground track

The orbit data is extracted from the following two-line orbital elements,

1 17528U 87018B   16149.89957315  .00000180  00000-0  48379-4 0  9999
2 17528  97.4052 145.7670 0153900  62.5393 355.9055 14.50654429544160
Epoch (UTC): 28 May 2016 21:35:23
Eccentricity: 0.0153900
inclination: 97.4052°
perigee height: 614 km
apogee height: 833 km
right ascension of ascending node: 145.7670°
argument of perigee: 62.5393°
revolutions per day: 14.50654429
mean anomaly at epoch: 355.9055°
orbit number at epoch: 54416

The dashed part of the orbit path shows where the satellite is in the earth's shadow,  

DLR